Location: ???????????
(41.1844°N, 22.9010°E)
Time: 13:05:13
(UTC+00:00)

Daily predictions for brighter satellites

Satellite Brightness Start Highest point End
(mag) Time Altitude Azimuth Time Altitude Azimuth Time Altitude Azimuth
OBJECT-B 3.3 18:33:49 10° SW 18:35:59 19° W 18:38:11 10° NW
Cosmos 1954 Rocket 4.1 18:33:21 10° NNW 18:38:36 64° ENE 18:43:45 10° SSE
Cosmos 1656 4.5 18:36:24 10° N 18:41:27 36° ENE 18:46:31 10° SE
ATLAS 2AS CENTAUR R/B 2.8 18:34:28 10° NNW 18:41:34 72° NE 18:48:09 10° SE
GEOS 3 Rocket 3.9 18:36:50 10° SE 18:41:50 58° NE 18:46:51 10° NNW
Cosmos 1544 Rocket 4.2 18:39:47 10° N 18:43:52 39° ENE 18:47:56 10° SSE
Lacrosse 5 rocket 2.1 18:42:14 10° WNW 18:45:55 44° SW 18:49:47 10° SSE
Cosmos 1980 Rocket 4.3 18:49:29 10° NNE 18:52:07 13° NE 18:54:43 10° ENE
Resurs 1-3 4.3 18:48:25 10° S 18:52:42 55° W 18:57:01 10° NNW
USA 32 4.2 18:47:43 10° SSE 18:52:47 55° E 18:57:53 10° NNE
Cosmos 1697 Rocket 4.2 18:48:33 10° N 18:52:59 23° NE 18:57:24 10° ESE
TSX-5 4.3 18:49:57 10° SSW 18:54:11 68° ESE 18:59:45 10° NNE
PSLV R/B 3.9 18:53:12 10° NNE 18:57:22 83° E 19:01:33 10° SSW
COSMOS 2406 4.4 18:54:46 10° SSE 18:59:02 22° E 19:03:20 10° NE
SPOT 1/Viking Rocket 3.6 18:54:00 10° SSE 18:59:06 71° ENE 19:04:14 10° N
IRS-1A Rocket 4.4 18:54:08 10° SSE 19:00:02 79° ENE 19:05:55 10° NNW
NOSS 2-1 (E) 4.3 18:56:35 10° NNW 19:01:29 76° NE 19:07:54 12° SE
Cosmos 1025 Rocket 3.8 19:01:59 10° SSW 19:06:10 54° W 19:10:24 10° N
X-37B 1.6 19:10:14 10° WNW 19:12:53 36° N 19:15:32 10° ENE
SPOT 5 3.8 19:10:32 14° ESE 19:13:28 28° ENE 19:17:09 10° N
Cosmos 1833 Rocket 2.8 19:09:52 10° S 19:15:16 52° ESE 19:20:42 10° NNE
Cosmos 1452 Rocket 3.5 19:11:16 10° SSW 19:16:30 77° ESE 19:21:46 10° NNE
Cosmos 1703 3.6 19:16:02 14° SSE 19:19:05 44° E 19:22:45 10° NNE
Terra 3.2 19:17:35 14° ESE 19:20:32 25° ENE 19:24:23 10° NNE
Delta 2 Rocket 3.6 19:19:04 10° WSW 19:22:03 30° S 19:23:21 22° SE
Cosmos 1110 Rocket 4.1 19:17:31 10° S 19:22:37 54° ESE 19:27:46 10° NNE
RESURS DK-1 2.8 19:18:51 10° NNW 19:22:52 47° ENE 19:25:28 20° SE
ERS-1 Rocket 3.8 19:22:34 17° SE 19:25:54 36° ENE 19:30:29 10° N
Helios 1A Rocket 3.9 19:24:58 19° ESE 19:27:15 33° ENE 19:30:58 10° N
Resurs 01 Rocket 2.5 19:24:25 10° S 19:28:40 47° W 19:32:59 10° NNW
CZ-4B R/B 2.4 19:28:36 10° N 19:31:19 38° WNW 19:34:02 10° SW
Cosmos 2184 Rocket 4.1 19:26:14 10° N 19:32:23 64° E 19:37:07 18° SSE
Cosmos 2228 3.4 19:32:11 10° N 19:36:17 46° ENE 19:38:27 24° SE
IRAS Rocket 4.4 19:33:27 10° NNE 19:39:02 78° WNW 19:44:34 10° SSW
Lacrosse 5 2.8 19:34:48 10° WNW 19:39:32 38° SW 19:42:52 17° S
Cosmos 1408 4.5 19:42:17 14° E 19:42:17 14° E 19:43:59 10° NE
Cosmos 1328 4.3 19:46:39 29° SE 19:48:07 41° E 19:51:54 10° NNE
Cosmos 2082 Rocket 2.7 19:45:37 20° SSE 19:48:58 40° ESE 19:54:14 10° NE
Cosmos 1271 Rocket 4.4 19:46:48 10° NNW 19:50:20 31° W 19:53:48 10° SSW
Cosmos 2360 4.4 19:44:51 10° NNW 19:50:33 62° ENE 19:53:50 25° SE
USA 267 3.8 19:46:41 10° ENE 19:52:30 33° SE 19:58:11 10° S
USA 245 3.6 19:52:45 22° S 19:55:23 62° WSW 19:58:54 10° NNW
Cosmos 1536 Rocket 4.4 19:52:02 10° SSW 19:56:12 48° W 20:00:26 10° N
Meteor 1-21 Rocket 4.1 19:54:30 15° S 19:59:08 84° E 20:04:51 10° N
Cosmos 1455 4.2 19:56:26 10° NW 19:59:35 25° W 20:02:43 10° SW
CARTOSAT-1 4.5 19:56:43 16° SSW 19:59:50 44° W 20:03:58 10° NNW
ARIANE 5 R/B 3.3 19:58:11 29° ESE 19:59:54 42° ENE 20:04:04 10° N
Cosmos 1606 Rocket 3.6 20:00:25 10° N 20:04:43 62° E 20:06:16 37° SSE
GP-B 4.4 20:01:51 10° NNE 20:05:29 24° E 20:06:09 23° E
Cosmos 1741 Rocket 4.3 20:01:40 10° NNW 20:06:56 63° WSW 20:09:58 25° S
Cosmos 192 4.2 20:04:06 23° S 20:07:06 69° ESE 20:11:59 10° NNE
ATLAS 5 CENTAUR R/B 4.0 20:00:36 10° NW 20:07:41 26° W 20:10:21 14° SSW
SPOT 3 Rocket 4.2 20:05:32 18° S 20:09:13 49° W 20:14:17 10° NNW
Tiangong 3.8 20:09:38 10° SW 20:09:44 10° SW 20:09:44 10° SW
Cosmos 2074 Rocket 4.5 20:08:54 10° NNW 20:15:01 58° W 20:19:38 18° SSW
Cosmos 2327 Rocket 4.4 20:09:03 10° N 20:15:23 81° E 20:18:42 30° SSE
Nadezhda 1 Rocket 4.2 20:18:42 16° SSW 20:23:38 69° W 20:29:41 10° N
Cosmos 2181 Rocket 4.5 20:22:33 32° SE 20:24:38 42° E 20:30:25 10° NNE
Cosmos 1892 3.0 20:27:17 47° E 20:27:17 47° E 20:30:54 10° NNE
Cosmos 1726 Rocket 3.4 20:23:07 10° N 20:27:28 85° E 20:28:35 49° SSE
ATLAS 2AS CENTAUR R/B 4.4 20:26:44 10° WNW 20:31:40 21° WSW 20:35:55 12° SSW
Meteor 2-1 Rocket 4.4 20:27:12 10° NNW 20:32:41 68° W 20:35:17 32° S
Cosmos 1932 4.4 20:29:22 23° SSW 20:33:19 67° ESE 20:39:35 10° NE
Cosmos 1992 Rocket 4.3 20:35:12 42° SE 20:36:08 47° ESE 20:41:08 10° NNE
SL-16 R/B 4.0 20:32:18 10° N 20:36:38 22° NE 20:39:33 15° E
Cosmos 1980 Rocket 2.2 20:31:25 10° NNW 20:37:08 75° ENE 20:39:07 42° SE
Cosmos 1697 Rocket 3.1 20:31:49 10° NNW 20:37:17 54° WSW 20:39:32 33° SSW
Cosmos 2344 4.4 20:31:11 10° NW 20:40:33 88° ENE 20:48:13 29° SE
SL-8 R/B 3.7 20:35:49 10° WNW 20:40:34 62° SW 20:41:22 53° S
Cosmos 2369 3.7 20:34:49 10° NNW 20:40:36 89° ENE 20:42:35 43° SSE
COSMOS 2406 3.9 20:37:17 10° SW 20:42:54 54° WNW 20:48:33 10° NNE
TIMED 4.5 20:45:10 49° SSW 20:46:19 82° WNW 20:50:41 10° NNE
ATLAS 5 CENTAUR R/B 1.3 20:48:00 58° ENE 20:48:00 58° ENE 20:51:26 10° NE
X-37B 2.3 20:45:41 10° WNW 20:47:01 25° WNW 20:47:01 25° WNW
In-Cosmos 22 Rocket 4.1 20:48:39 47° SSE 20:50:12 69° E 20:55:38 10° NNE
SPOT 5 4.3 20:49:45 19° SW 20:51:31 25° W 20:55:07 10° NW
Terra 3.0 20:56:28 27° SW 20:58:06 35° W 21:02:27 10° NNW
Meteor 1-27 4.3 20:53:26 10° N 20:58:57 63° ENE 21:00:16 49° SE
Cosmos 1869 3.7 20:56:09 10° N 20:59:42 48° ENE 20:59:42 48° ENE
Cosmos 2084 Rocket 3.7 20:56:18 10° NW 21:00:03 51° WSW 21:00:03 51° WSW
ADEOS Rocket 4.4 20:58:46 24° ESE 21:02:15 37° ENE 21:09:07 10° N
ALOS 2 4.2 21:02:25 22° ENE 21:02:57 22° ENE 21:06:22 10° NNE
ASTEX 1 3.5 21:00:01 10° N 21:05:00 73° W 21:06:20 48° SSW
SL-8 Rocket 3.9 21:00:09 10° N 21:06:24 86° W 21:08:22 47° S
Cosmos 2322 Rocket 3.6 21:07:28 10° N 21:12:22 29° NE 21:14:37 22° E
Cosmos 1825 2.4 21:15:03 66° NNW 21:15:03 66° NNW 21:18:23 10° N
Cosmos 2058 Rocket 3.6 21:10:30 10° NNW 21:14:47 50° W 21:15:19 47° WSW
Cosmos 1408 4.1 21:16:15 27° W 21:16:29 27° WNW 21:19:28 10° NNW
Cosmos 1626 Rocket 3.4 21:17:39 86° WSW 21:17:42 87° W 21:22:04 10° N
Cosmos 2278 3.6 21:17:35 10° NNW 21:23:19 80° WSW 21:24:23 60° S
Cosmos 2366 rocket 4.1 21:19:08 10° N 21:25:28 74° W 21:27:20 48° SSW
Cosmos 968 Rocket 4.3 21:20:54 10° NW 21:25:43 38° WSW 21:26:36 35° SW
Cosmos 2333 Rocket 4.5 21:23:22 10° N 21:27:00 17° NE 21:30:36 10° E
Cosmos 2218 Rocket 4.1 21:22:34 10° NNW 21:28:57 69° W 21:30:50 46° SSW
Meteor 2-20 4.4 21:29:48 55° SSE 21:30:58 68° E 21:37:01 10° NNE
USA 276 4.3 21:28:50 10° NW 21:31:01 24° N 21:31:01 24° N
Cosmos 2082 Rocket 3.8 21:28:06 10° WSW 21:33:07 31° NW 21:38:09 10° N
SJ 16-02 2.3 21:31:08 10° N 21:35:17 38° ENE 21:35:23 38° ENE
USA 267 3.5 21:29:15 10° NE 21:35:46 70° NW 21:42:15 10° WSW
Cosmos 1867 4.0 21:30:54 10° NW 21:36:08 47° WSW 21:36:30 47° SW
H-2A R/B 3.8 21:40:58 10° NNE 21:44:31 59° NE 21:44:31 59° NE
Cosmos 2360 Rocket 3.3 21:43:13 10° N 21:48:24 35° ENE 21:50:16 28° E
Spot 4 3.7 21:48:33 75° WSW 21:48:37 75° WSW 21:53:25 10° NNW
Cosmos 2058 3.8 21:50:01 43° ENE 21:50:01 43° ENE 21:53:15 10° NNE
Cosmos 2221 4.4 21:48:09 10° NNE 21:51:25 20° ENE 21:51:30 20° ENE
SL-08 R/B 4.5 21:45:19 10° N 21:51:48 90° ENE 21:53:14 58° S
Cosmos 1606 3.6 21:50:27 10° N 21:53:24 47° NNE 21:53:24 47° NNE
Meteor 2-20 Rocket 4.3 21:58:19 63° SSE 21:59:21 81° E 22:05:29 10° N
Cosmos 44 4.2 22:02:58 35° ENE 22:02:58 35° ENE 22:05:59 10° NE
Cosmos 2237 4.2 21:58:16 10° NNW 22:04:00 71° ENE 22:04:54 60° ESE
USA 234 3.5 22:04:42 29° ESE 22:08:12 68° NE 22:14:44 10° NW
Cosmos 1758 Rocket 4.2 22:08:36 48° WNW 22:08:36 48° WNW 22:12:42 10° N
Cosmos 1633 4.5 22:12:09 24° NW 22:12:09 24° NW 22:14:22 10° NNW
Cosmos 1821 Rocket 4.2 22:14:17 10° NNW 22:20:20 56° W 22:21:23 50° SW
Cosmos 1980 Rocket 4.2 22:17:23 10° WNW 22:20:23 15° W 22:20:52 15° WSW
SL-16 R/B 2.3 22:15:35 10° NNW 22:21:10 60° WSW 22:21:23 60° WSW
SL-4 R/B 3.4 22:23:23 31° NNE 22:23:23 31° NNE 22:25:40 10° NE
Cosmos 2219 Rocket 3.6 22:20:30 10° N 22:25:30 31° ENE 22:28:08 21° E
CRYOSAT 2 4.3 22:31:17 74° E 22:31:17 74° E 22:36:09 10° N
Cosmos-2242 4.3 22:28:04 10° NNW 22:31:12 30° WNW 22:31:12 30° WNW
ATLAS 5 CENTAUR R/B 4.1 22:30:30 10° WNW 22:32:34 14° NW 22:34:46 10° N
Cosmos 1605 Rocket 4.3 22:30:36 10° N 22:36:58 62° E 22:38:25 49° SE
ERS-2 3.4 22:35:13 10° N 22:37:40 37° NNW 22:37:40 37° NNW
ALOS 2 3.9 22:39:48 31° WNW 22:39:48 31° WNW 22:43:04 10° NNW
Meteor 2-11 Rocket 4.3 22:36:26 10° N 22:42:34 89° W 22:43:30 67° S
Cosmos 1076 Rocket 4.3 22:46:53 46° ENE 22:46:53 46° ENE 22:50:33 10° NNE
ADEOS Rocket 3.9 22:45:43 41° SW 22:47:25 48° W 22:54:47 10° NNW
Cosmos 972 Rocket 4.0 22:49:00 10° NNW 22:54:17 77° WSW 22:54:40 73° SW
NOSS 3-2 (A) 3.7 22:54:56 44° ESE 22:54:56 44° ESE 23:00:31 10° NE
Cosmos 540 Rocket 4.3 22:55:58 37° E 22:55:58 37° E 23:00:38 10° NE
Cosmos 2322 Rocket 2.8 22:51:12 10° NW 22:56:24 43° WSW 22:56:24 43° WSW
Cosmos 1933 4.2 22:53:08 10° N 22:56:26 46° NE 22:56:26 46° NE
SL-27 R/B 4.3 23:00:48 29° N 23:00:48 29° N 23:02:33 10° NNE
ISS -1.6 23:01:42 24° NE 23:01:42 24° NE 23:03:13 10° NE
PSLV R/B 4.2 22:58:18 10° N 23:02:55 51° WNW 23:03:01 51° WNW
Cosmos 2285 Rocket 4.1 23:08:13 53° SSE 23:09:25 62° ESE 23:15:46 10° NNE
CENTAUR R/B 2.5 23:09:34 52° SE 23:10:06 54° ESE 23:16:36 10° NE
Cosmos 2333 Rocket 2.1 23:06:15 10° NNW 23:12:03 86° WSW 23:12:52 67° SSE
COSMOS 2487 4.4 23:13:59 24° N 23:13:59 24° N 23:15:26 10° N
Gbstr 26 Del rocket 4.5 23:11:09 24° WNW 23:13:22 39° NNW 23:18:23 10° NE
SJ 16-02 3.4 23:10:24 10° NW 23:12:19 17° WNW 23:12:19 17° WNW
Cosmos 2151 3.2 23:14:58 69° NE 23:14:58 69° NE 23:18:50 10° N
Cosmos 1898 Rocket 4.0 23:14:00 10° N 23:19:04 52° ENE 23:20:27 40° ESE
Meteor 2-3 Rocket 3.6 23:20:57 63° SW 23:21:41 71° W 23:27:16 10° N
Cosmos 1812 3.3 23:23:36 10° N 23:26:44 55° NNE 23:26:44 55° NNE
Cosmos 1937 Rocket 4.4 23:22:24 10° N 23:27:27 45° ENE 23:29:31 30° ESE
Cosmos 2221 3.8 23:25:05 10° NNW 23:28:17 31° WNW 23:28:17 31° WNW
Cosmos 2227 Rocket 3.9 23:29:43 18° ESE 23:31:11 20° E 23:35:08 10° NE
Cosmos 1153 Rocket 4.4 23:25:24 10° N 23:31:45 82° W 23:33:16 55° S
Cosmos 1842 Rocket 4.4 23:27:32 10° NNW 23:31:14 41° WNW 23:31:14 41° WNW
Cosmos 2360 Rocket 3.1 23:27:17 10° NW 23:32:00 33° W 23:32:00 33° W
Cosmos 1862 3.9 23:34:11 50° ENE 23:34:11 50° ENE 23:37:37 10° NNE
Resurs 1-4 Rocket 2.9 23:31:49 10° NNE 23:36:50 41° E 23:38:01 36° SE
Cosmos 2333 4.4 23:31:26 10° NNW 23:37:02 52° WSW 23:37:21 52° WSW
Cosmos 1782 3.4 23:34:04 10° NNW 23:37:13 49° NW 23:37:13 49° NW
NOSS 3-2 (C) 3.4 23:41:34 48° SSE 23:42:21 52° ESE 23:48:15 10° NE
CZ-2D R/B 2.7 23:40:26 10° NNE 23:45:27 47° E 23:46:39 40° SE
COSMOS 2455 4.2 23:41:20 10° NNW 23:46:52 36° NE 23:52:22 10° ESE
USA 234 3.9 23:52:01 34° WSW 23:52:01 34° WSW 23:57:21 10° WNW
Cosmos 1727 Rocket 4.3 23:51:12 43° SW 23:52:51 55° W 23:59:02 10° N
